Location: Prostejov
(49.4670°N, 17.1170°E)
Time: 09:33:46
(UTC+02:00)

ISS - Pass Details

Date: 18 May 2021
Orbit: 417 x 422 km, 51.6° (Epoch: 13 June)

Event Time Altitude Azimuth Distance (km) Brightness Sun altitude
Rises 21:16:46 0° 235° (SW) 2,354 0.2 -6.5°
Reaches altitude 10° 21:18:52 10° 231° (SW) 1,494 -0.8 -6.8°
Maximum altitude 21:22:09 54° 153° (SSE) 518 -3.6 -7.2°
Drops below altitude 10° 21:25:27 10° 75° (ENE) 1,504 -1.3 -7.5°
Sets 21:27:35 0° 71° (ENE) 2,371 -0.2 -7.8°
